Regional Weather Roundup
Issued by NWS Sterling, VA

Home | Current Version | Previous Version | Graphics & Text | Print | Product List | Glossary On
Versions: 1 2 3 4 5 6 7 8 9 10 11 12 13 14 15 16 17 18 19 20 21 22 23 24 25 26 27
000
ASUS41 KLWX 211511
RWRLWX

REGIONAL WEATHER ROUNDUP
NATIONAL WEATHER SERVICE BALTIMORE MD/WASHINGTON DC
1100 AM EDT SUN MAY 21 2017

Note: "FAIR" indicates few or no clouds below 12,000 feet
with no significant weather and/or obstructions to visibility.
 TC=TEMPERATURE CELSIUS

 * =Non NWS site. Station does not report precipitation (e.g. rain,
    snow, etc.), thunder, or fog.

DCZ001-MDZ009-015-VAZ040>042-051-053>054-211600-
WASHINGTON METRO

CITY           SKY/WX    TMP DP  RH WIND       PRES   REMARKS
WASHINGTON NAT CLOUDY    63  47  55 SE6       30.32S
DULLES         CLOUDY    60  46  59 E7        30.31F
ANDREWS AFB    CLOUDY    62  48  61 SE5       30.32R
FT BELVOIR     CLOUDY    61  48  62 SE6       30.31F
QUANTICO       CLOUDY    61  51  70 CALM      30.32S
COLLEGE PARK*  CLOUDY    62  46  56 E5        30.32S
LEESBURG*      CLOUDY    63  43  48 S6        30.33R
MANASSAS*        N/A     61  49  64 CALM      30.32S
GAITHERSBURG*  CLOUDY    63  45  51 VRB5G16   30.32F

$$

MDZ006>007-011-014-211600-
BALTIMORE METRO

CITY           SKY/WX    TMP DP  RH WIND       PRES   REMARKS
BWI AIRPORT    CLOUDY    61  45  55 E13       30.31F
MD SCIENCE CTR   N/A     63  46  54 MISG      30.33S
MARTIN STATE   CLOUDY    61  48  63 CALM      30.37R
ANNAPOLIS      CLOUDY    62  51  67 E7        30.32F
FORT MEADE*    CLOUDY    61  46  59 E8        30.35R

$$

MDZ012-015-019>023-211600-
MARYLAND EASTERN SHORE

CITY           SKY/WX    TMP DP  RH WIND       PRES   REMARKS
OCEAN CITY     CLOUDY    62  52  69 E8        30.36R
SALISBURY      CLOUDY    65  46  50 E13       30.33S
BAY BRIDGE AP*   N/A     63  46  55 E6        30.33F
CAMBRIDGE*     CLOUDY    64  46  52 E16       30.30F
EASTON*        CLOUDY    64  46  52 SE8       30.35F

$$

MDZ017>025-211600-
SOUTHERN MARYLAND

CITY           SKY/WX    TMP DP  RH WIND       PRES   REMARKS
PATUXENT RIVER PTSUNNY   64  52  64 E9        30.31S
ST INIGOES     PTSUNNY   65  52  62 E9        30.31R
LEONARDTOWN*   CLOUDY    61  50  67 E8        30.33R

$$

MDZ003>005-211600-
NORTH CENTRAL MARYLAND

CITY           SKY/WX    TMP DP  RH WIND       PRES   REMARKS
FREDERICK*     CLOUDY    63  48  59 SE5       30.34F
HAGERSTOWN APT CLOUDY    60  38  43 S3        30.31S
WESTMINSTER*   CLOUDY    63  43  48 SE6       30.31F

$$

MDZ501>502-211600-
WESTERN MARYLAND

CITY           SKY/WX    TMP DP  RH WIND       PRES   REMARKS
OAKLAND*       FOG       52  52 100 SE18      30.23R VSB<1/4
CUMBERLAND*    PTSUNNY   61  52  72 SE3       30.30S

$$

VAZ025>031-211600-
SHENANDOAH VALLEY

CITY           SKY/WX    TMP DP  RH WIND       PRES   REMARKS
WINCHESTER*    CLOUDY    57  45  62 E6        30.30S
FRONT ROYAL*   CLOUDY    59  52  77 NE3       30.28S
LURAY*         CLOUDY    61  55  82 CALM      30.28S
NEW MARKET*    CLOUDY    62  56  78 CALM      30.27F
STAUNTON*      CLOUDY    62  53  72 CALM      30.29F
WAYNESBORO*    CLOUDY    60  54  79 E9        30.28S

$$

WVZ021-048>050-054>055-211600-
EASTERN WEST VIRGINIA PANHANDLE

CITY           SKY/WX    TMP DP  RH WIND       PRES   REMARKS
MARTINSBURG    CLOUDY    60  44  55 SE6       30.30S
PETERSBURG*    CLOUDY    64  60  87 CALM      30.24F

$$

VAZ036>039-050-211600-
CENTRAL FOOTHILLS

CITY           SKY/WX    TMP DP  RH WIND       PRES   REMARKS
CHARLOTTESVILL CLOUDY    64  51  62 VRB5      30.29S
CULPEPER*      CLOUDY    62  49  62 CALM      30.31F
ORANGE*        CLOUDY    61  52  72 NE5       30.30F
GORDONSVILLE*  CLOUDY    61  51  71 CALM      30.30R
WARRENTON*     CLOUDY    62  44  50 E5        30.30F

$$

VAZ055>057-211600-
NORTH AND CENTRAL PIEDMONT

CITY           SKY/WX    TMP DP  RH WIND       PRES   REMARKS
FREDERICKSBRG* CLOUDY    62  52  69 E7        30.30S
STAFFORD*      CLOUDY    60  52  74 E3        30.35S

$$

NCZ024-NYZ072-PAZ021-071-VAZ022-071-211600-
OTHER REGIONAL OBSERVATIONS

CITY           SKY/WX    TMP DP  RH WIND       PRES   REMARKS
NEW YORK CITY  SUNNY     65  33  30 CALM      30.41R
PHILADELPHIA   PTSUNNY   67  41  38 E10G20    30.36S
PITTSBURGH     CLOUDY    73  61  65 S10       30.09F
ROANOKE        CLOUDY    61  56  83 SE7       30.29S
RICHMOND       PTSUNNY   64  54  69 E5        30.28S
RALEIGH        CLOUDY    62  59  90 E6        30.25F

$$

ANZ530>537-211600-
MARINE OBSERVATIONS

STATION/POSITION TIME  TEMP    WIND        PRES
                       AIR SEA DIR/SP/G
                 (UTC) (F)     (DEG/KT/KT) (MB)
THOMAS PT LIGHT  1500   60 66  100/  8/  9   N/A
BALT KEY BRIDGE  1448   59     100/  7/  8 1027.1S
COVE POINT       1448   61     120/  6/ 11 1027.1F
LEWISETTA        1442   61 71  100/ 11/ 13 1025.9R
SOLOMONS ISLAND  1448   62 67   90/  7/ 10   N/A
PINEY POINT      1448          120/  7/  8   N/A

$$





USA.gov is the U.S. government's official web portal to all federal, state and local government web resources and services.